This is the latest recevied weather packets stored in our database for station/object KN4MGS. If no packets are shown the sender has not sent any weather packets the latest 10 day(s).
| Time | Temp. | Humidity | Pressure | Rain* | Wind** | Luminosity | Snow |
|---|---|---|---|---|---|---|---|
| 1777913618 | 23.89° C | 43% | 1020.1 hPa | 0 mm | - | 773 W/m² | - |
| 1777913314 | 24.44° C | 38% | 1020.1 hPa | 0 mm | - | 740 W/m² | - |
| 1777913011 | 24.44° C | 41% | 1020.1 hPa | 0 mm | - | 726 W/m² | - |
| 1777912707 | 23.89° C | 39% | 1020 hPa | 0 mm | - | 713 W/m² | - |
| 1777912403 | 23.89° C | 43% | 1020.6 hPa | 0 mm | - | 689 W/m² | - |
| 1777912100 | 24.44° C | 38% | 1020.7 hPa | 0 mm | - | 573 W/m² | - |
| 1777911795 | 24.44° C | 41% | 1020.6 hPa | 0 mm | - | 671 W/m² | - |
| 1777911492 | 23.89° C | 40% | 1020.9 hPa | 0 mm | - | 700 W/m² | - |
| 1777911189 | 23.89° C | 43% | 1020.9 hPa | 0 mm | - | 727 W/m² | - |
| 1777910887 | 22.78° C | 40% | 1021.1 hPa | 0 mm | - | 759 W/m² | - |
| 1777910583 | 22.78° C | 44% | 1021.5 hPa | 0 mm | - | 738 W/m² | - |
| 1777910281 | 22.78° C | 42% | 1021.2 hPa | 0 mm | - | 730 W/m² | - |
| 1777909977 | 22.78° C | 43% | 1021.3 hPa | 0 mm | - | 756 W/m² | - |
| 1777909674 | 22.78° C | 44% | 1021.6 hPa | 0 mm | - | 673 W/m² | - |
| 1777909371 | 22.78° C | 43% | 1021.4 hPa | 0 mm | - | 669 W/m² | - |
| 1777909069 | 22.22° C | 41% | 1021.3 hPa | 0 mm | - | 670 W/m² | - |
| 1777908767 | 22.22° C | 42% | 1021.5 hPa | 0 mm | - | 722 W/m² | - |
| 1777908463 | 22.78° C | 40% | 1021.5 hPa | 0 mm | - | 744 W/m² | - |
| 1777908160 | 22.78° C | 37% | 1021.6 hPa | 0 mm | - | 729 W/m² | - |
| 1777907856 | 22.22° C | 41% | 1021.3 hPa | 0 mm | - | 737 W/m² | - |
| 1777907552 | 21.67° C | 47% | 1021.2 hPa | 0 mm | - | 757 W/m² | - |
| 1777907248 | 22.78° C | 43% | 1021.6 hPa | 0 mm | - | 743 W/m² | - |
| 1777906945 | 22.22° C | 46% | 1021.4 hPa | 0 mm | - | 754 W/m² | - |
| 1777906643 | 21.67° C | 47% | 1021.7 hPa | 0 mm | - | 719 W/m² | - |
| 1777906339 | 20.56° C | 48% | 1021.4 hPa | 0 mm | - | 751 W/m² | - |
* Rain latest hour (hover to see other rain measurements)
** Current wind speed in m/s (hover to see current wind gust speed)